National Weather Service Raw Text Product

Displaying AFOS PIL: RWRIA Received: 2018-07-12 13:00 UTC


461 
ASUS43 KDMX 121306
RWRIA 

WEATHER ROUNDUP FOR IOWA
NATIONAL WEATHER SERVICE DES MOINES IA
800 AM CDT THU JUL 12 2018

NOTE: "FAIR" INDICATES FEW OR NO CLOUDS BELOW 12,000 FEET WITH NO
SIGNIFICANT WEATHER AND/OR OBSTRUCTIONS TO VISIBILITY.

* - THESE STATIONS ARE NOT NWS STATIONS...THUS NOT UNDER NWS
QUALITY CONTROL.  THEY ALSO DO NOT REPORT WEATHER SUCH 
AS PRECIPITATION OR FOG.  

IAZ001>003-012>014-020>022-031>034-043>046-121400-
   NORTHWEST IOWA
  
CITY           SKY/WX    TMP DP  RH WIND       PRES   REMARKS
CARROLL *      SUNNY     79  72  78 S10G17    30.06R HX  82           
CHEROKEE *     SUNNY     79  73  81 S7        30.03R HX  82           
DENISON *      SUNNY     77  72  83 VRB7G15   30.06S                  
LE MARS *      SUNNY     79  73  83 S8        30.01R HX  82           
ORANGE CITY *  SUNNY     79  73  83 S7        30.02R HX  82           
SHELDON *      SUNNY     79  73  83 S12       30.01R HX  82           
SIOUX CITY     SUNNY     78  73  84 SE8       30.01R HX  81           
STORM LAKE *   SUNNY     77  72  83 S6        30.05R                  
$$
 
IAZ055>058-069>071-079>083-090>094-121400-
   SOUTHWEST IOWA
  
CITY           SKY/WX    TMP DP  RH WIND       PRES   REMARKS
ATLANTIC *     SUNNY     79  70  73 S8        30.06S HX  81           
AUDUBON *      SUNNY     79  70  73 S8        30.08R HX  81           
CLARINDA *     SUNNY     77  70  78 S6        30.08R                  
COUNCIL BLFS * SUNNY     77  70  78 S8        30.05R                  
CRESTON *      SUNNY     75  64  69 S8        30.10R                  
HARLAN  *        N/A     77  72  83 S6G12     30.06R                  
LAMONI         SUNNY     75  62  64 S9        30.09R                  
RED OAK *      SUNNY     79  72  78 S7        30.06R HX  82           
SHENANDOAH *   SUNNY     79  72  78 S7        30.06R HX  82           
$$
 
IAZ047>049-059>061-072>074-084-121400-
   CENTRAL IOWA
  
CITY           SKY/WX    TMP DP  RH WIND       PRES   REMARKS
AMES           SUNNY     73  65  75 SE5       30.07S                  
ANKENY *       SUNNY     77  64  65 VRB5      30.09R                  
BOONE *        SUNNY     75  64  69 VRB6G12   30.07R                  
CHARITON *     SUNNY     75  64  69 S8        30.09R                  
DES MOINES     MOSUNNY   76  64  66 S9        30.07R                  
GRINNELL*      SUNNY     73  65  77 S7        30.12R                  
KNOXVILLE *    SUNNY     75  64  69 S9        30.08R                  
MARSHALLTOWN   CLOUDY    73  67  81 S9        30.08R                  
NEWTON *       SUNNY     72  66  83 SE6       30.10R                  
PELLA *        SUNNY     75  65  70 SE5       30.11R                  
PERRY *        FAIR      76  68  78 MISG      30.08R                  
$$
 
IAZ004>006-015-016-023>025-035-036-121400-
   NORTH CENTRAL IOWA
  
CITY           SKY/WX    TMP DP  RH WIND       PRES   REMARKS
ALGONA *       SUNNY     77  70  78 S12       30.05R                  
CLARION *      SUNNY     75  64  69 S10       30.07R                  
ESTHERVILLE    SUNNY     77  71  82 S10       30.02R                  
FORT DODGE *   SUNNY     76  67  73 S9G18     30.07R                  
MASON CITY     CLOUDY    75  65  70 S12       30.07R                  
FOREST CITY *  FAIR      75  66  73 S12       30.04S                  
WEBSTER CITY * SUNNY     75  64  69 S9        30.05R                  
IOWA FALLS *   FAIR      73  65  75 S8        30.09R                  
$$

IAZ007>011-017>019-026>030-037>042-050>054-066-121400-
   NORTHEAST IOWA
  
CITY           SKY/WX    TMP DP  RH WIND       PRES   REMARKS
CEDAR RAPIDS   FAIR      73  68  84 S10       30.11R                  
CHARLES CITY * FAIR      72  64  78 S10       30.08R                  
CLINTON *      FAIR      73  67  81 SE5       30.15R                  
DECORAH *      FAIR      73  68  83 S9        30.09R                  
DUBUQUE        FAIR      72  65  78 S12       30.13R                  
MONTICELLO *   FAIR      73  68  83 S7G14     30.12R                  
OELWEIN *      FAIR      73  70  88 S9G16     30.11R                  
WATERLOO       FAIR      70  66  87 S10       30.07R                  
$$
 
IAZ064-065-067-068-078-121400-
   EAST CENTRAL IOWA
  
CITY           SKY/WX    TMP DP  RH WIND       PRES   REMARKS
DAVENPORT      FAIR      74  63  68 S10       30.14S                  
IOWA CITY      FAIR      73  68  84 MISG      30.13S                  
MUSCATINE *    FAIR      75  68  78 S7        30.12S                  
QUAD CITIES    FAIR      74  66  76 SE3       30.12F                  
$$
 
IAZ062-063-075>077-085>089-095>099-121400-
   SOUTHEAST IOWA
  
CITY           SKY/WX    TMP DP  RH WIND       PRES   REMARKS
BURLINGTON     SUNNY     76  68  76 S9        30.13R                  
FAIRFIELD *    SUNNY     75  68  78 S9        30.11S                  
FORT MADISON * SUNNY     73  70  88 S7        30.14R                  
KEOKUK *       SUNNY     75  70  83 SE7       30.12R                  
OSKALOOSA *    FAIR      74  68  81 S6        30.11R                  
CENTERVILLE *    N/A     75  66  73 CALM      30.11S                  
OTTUMWA        SUNNY     76  67  73 S10       30.11R                  
WASHINGTON *   SUNNY     72  72 100 S7        30.13S                  
$$

ABBREVIATIONS USED IN REMARKS
   TC - TEMPERATURES IN CELSIUS
  WCI - WIND CHILL INDEX
   HX - HEAT INDEX
  VSB - VISIBILITY  
$$

  

855 
ASUS43 KDMX 121301
RWRIA 

WEATHER ROUNDUP FOR IOWA
NATIONAL WEATHER SERVICE DES MOINES IA
800 AM CDT THU JUL 12 2018

NOTE: "FAIR" INDICATES FEW OR NO CLOUDS BELOW 12,000 FEET WITH NO
SIGNIFICANT WEATHER AND/OR OBSTRUCTIONS TO VISIBILITY.

* - THESE STATIONS ARE NOT NWS STATIONS...THUS NOT UNDER NWS
QUALITY CONTROL.  THEY ALSO DO NOT REPORT WEATHER SUCH 
AS PRECIPITATION OR FOG.  

IAZ001>003-012>014-020>022-031>034-043>046-121400-
   NORTHWEST IOWA
  
CITY           SKY/WX    TMP DP  RH WIND       PRES   REMARKS
CARROLL *      SUNNY     79  72  78 S10G17    30.06R HX  82           
CHEROKEE *     SUNNY     79  73  81 S7        30.03R HX  82           
DENISON *      SUNNY     77  72  83 VRB7G15   30.06S                  
LE MARS *      SUNNY     79  73  83 S8        30.01R HX  82           
ORANGE CITY *  SUNNY     79  73  83 S7        30.02R HX  82           
SHELDON *      SUNNY     79  73  83 S12       30.01R HX  82           
SIOUX CITY     SUNNY     78  73  84 SE8       30.01R HX  81           
STORM LAKE *   SUNNY     77  72  83 S6        30.05R                  
$$
 
IAZ055>058-069>071-079>083-090>094-121400-
   SOUTHWEST IOWA
  
CITY           SKY/WX    TMP DP  RH WIND       PRES   REMARKS
ATLANTIC *     SUNNY     79  70  73 S8        30.06S HX  81           
AUDUBON *      SUNNY     79  70  73 S8        30.08R HX  81           
CLARINDA *     SUNNY     77  70  78 S6        30.08R                  
COUNCIL BLFS * SUNNY     77  70  78 S8        30.05R                  
CRESTON *      SUNNY     75  64  69 S8        30.10R                  
HARLAN  *        N/A     77  72  83 S6G12     30.06R                  
LAMONI         SUNNY     75  62  64 S9        30.09R                  
RED OAK *      SUNNY     79  72  78 S7        30.06R HX  82           
SHENANDOAH *   SUNNY     79  72  78 S7        30.06R HX  82           
$$
 
IAZ047>049-059>061-072>074-084-121400-
   CENTRAL IOWA
  
CITY           SKY/WX    TMP DP  RH WIND       PRES   REMARKS
AMES           SUNNY     73  65  75 SE5       30.07S                  
ANKENY *       SUNNY     77  64  65 VRB5      30.09R                  
BOONE *        SUNNY     75  64  69 VRB6G12   30.07R                  
CHARITON *     SUNNY     75  64  69 S8        30.09R                  
DES MOINES     MOSUNNY   76  64  66 S9        30.07R                  
GRINNELL*      SUNNY     73  65  77 S7        30.12R                  
KNOXVILLE *    SUNNY     75  64  69 S9        30.08R                  
MARSHALLTOWN   CLOUDY    73  67  81 S9        30.08R                  
NEWTON *       SUNNY     72  66  83 SE6       30.10R                  
PELLA *        SUNNY     75  65  70 SE5       30.11R                  
PERRY *        FAIR      76  68  78 MISG      30.08R                  
$$
 
IAZ004>006-015-016-023>025-035-036-121400-
   NORTH CENTRAL IOWA
  
CITY           SKY/WX    TMP DP  RH WIND       PRES   REMARKS
ALGONA *       SUNNY     77  70  78 S12       30.05R                  
CLARION *      SUNNY     75  64  69 S10       30.07R                  
ESTHERVILLE    SUNNY     77  71  82 S10       30.02R                  
FORT DODGE *   SUNNY     76  67  73 S9G18     30.07R                  
MASON CITY     CLOUDY    75  65  70 S12       30.07R                  
FOREST CITY *  FAIR      75  66  73 S12       30.04S                  
IOWA FALLS *   FAIR      73  65  75 S8        30.09R                  
$$

IAZ007>011-017>019-026>030-037>042-050>054-066-121400-
   NORTHEAST IOWA
  
CITY           SKY/WX    TMP DP  RH WIND       PRES   REMARKS
CEDAR RAPIDS   FAIR      73  68  84 S10       30.11R                  
CHARLES CITY * FAIR      72  64  78 S10       30.08R                  
CLINTON *      FAIR      73  67  81 SE5       30.15R                  
DECORAH *      FAIR      73  68  83 S9        30.09R                  
DUBUQUE        FAIR      72  65  78 S12       30.13R                  
MONTICELLO *   FAIR      73  68  83 S7G14     30.12R                  
OELWEIN *      FAIR      73  70  88 S9G16     30.11R                  
WATERLOO       FAIR      70  66  87 S10       30.07R                  
$$
 
IAZ064-065-067-068-078-121400-
   EAST CENTRAL IOWA
  
CITY           SKY/WX    TMP DP  RH WIND       PRES   REMARKS
DAVENPORT      FAIR      74  63  68 S10       30.14S                  
IOWA CITY      FAIR      73  68  84 MISG      30.13S                  
MUSCATINE *    FAIR      75  68  78 S7        30.12S                  
QUAD CITIES    FAIR      74  66  76 SE3       30.12F                  
$$
 
IAZ062-063-075>077-085>089-095>099-121400-
   SOUTHEAST IOWA
  
CITY           SKY/WX    TMP DP  RH WIND       PRES   REMARKS
BURLINGTON     SUNNY     76  68  76 S9        30.13R                  
FAIRFIELD *    SUNNY     75  68  78 S9        30.11S                  
FORT MADISON * SUNNY     73  70  88 S7        30.14R                  
KEOKUK *       SUNNY     75  70  83 SE7       30.12R                  
OSKALOOSA *    FAIR      74  68  81 S6        30.11R                  
CENTERVILLE *    N/A     75  66  73 CALM      30.11S                  
OTTUMWA        SUNNY     76  67  73 S10       30.11R                  
WASHINGTON *   SUNNY     72  72 100 S7        30.13S                  
$$

ABBREVIATIONS USED IN REMARKS
   TC - TEMPERATURES IN CELSIUS
  WCI - WIND CHILL INDEX
   HX - HEAT INDEX
  VSB - VISIBILITY  
$$